Location: Invercargill
(46.4000°S, 168.3500°E)
Time: 14:59:09
(UTC+13:00)

ISS - Pass Details

Date: 02 February 2019
Orbit: 403 x 411 km, 51.6° (Epoch: 17 February)

Event Time Altitude Azimuth Distance (km) Brightness Sun altitude
Exits shadow 04:31:08 25° 34° (NE) 894 -2.3 -18.0°
Maximum altitude 04:31:20 25° 41° (NE) 890 -2.2 -18.0°
Drops below altitude 10° 04:34:09 10° 98° (E) 1,499 -0.3 -17.7°
Sets 04:36:29 0° 111° (ESE) 2,366 1.1 -17.4°
